{"data":{"norad_id":64893,"epoch":"2026-05-25T04:20:37.603392Z","epoch_age_seconds":55817,"freshness":"FRESH","line1":"1 64893U 25155T   26145.18099078  .00018136  00000+0  54422-3 0  9996","line2":"2 64893  97.4524 114.8065 0003445 258.5286 101.5570 15.34508245 77325","mean_motion":15.34508245,"eccentricity":0.0003445,"inclination_deg":97.4524,"raan_deg":114.8065,"arg_perigee_deg":258.5286,"mean_anomaly_deg":101.557,"bstar":0.00054422,"rev_number":7732,"period_min":93.841138012263,"perigee_km":460.02497353364,"apogee_km":464.73809080231,"semimajor_km":6840.518532168,"source":"CELESTRAK","updated_at":"2026-05-25T13:38:23.329830Z"}}